[[{"header":{"parameterUnit":"m.s-1","parameterCategory":2,"la1":30.2991,"la2":30.254,"lo1":-89.0895,"lo2":-89.0444,"dy":0.0017,"dx":0.0017,"nx":28,"ny":28,"refTime":"2024-06-23T09:00:00:Z","depth":"0","parameterNumber":2,"parameterNumberName":"U-component_of_CURRENTS"},"data":[0,0,0,0,0,0,0,0,0,0,0,0,0,0,0,0,0,0,0,0,0,0,0,0,0,0,0,0,0,0,0,0,0,0,0,0,0,0,0,0,0,0,0,0,0,0,0,0,0,0,0,0,0,0,0,0,0,0,0.1895,0.1896,0,0.1947,0.1947,0.1947,0.196,0.196,0.196,0.1961,0.1955,0.1955,0.1954,0,0,0,0,0,0,0,0,0,0,0,0,0,0.1671,0.1675,0.1895,0.1896,0.1897,0.1947,0.1947,0.1947,0.196,0.196,0.1961,0.1961,0.1955,0.1955,0.1954,0,0,0,0,0,0,0,0,0,0,0,0,0,0.1743,0.1676,0.1894,0.1915,0.1918,0.1947,0.1947,0.1947,0.196,0.196,0.1961,0.1961,0.1955,0.1955,0.1954,0.194,0,0,0.1952,0.1952,0,0,0,0,0,0,0,0,0.1739,0.1751,0.1911,0.1914,0.1917,0.1954,0.1867,0.1945,0.196,0.1936,0.1961,0.1961,0.1954,0.1953,0.1952,0.1939,0.1939,0.1952,0.1951,0.1951,0.1951,0,0,0,0,0,0,0,0.1734,0.1748,0.1908,0.1912,0.1916,0.1876,0.1888,0.188,0.1934,0.1938,0.1941,0.1959,0.1954,0.1953,0.1952,0.1939,0.1952,0.1951,0.1951,0.1951,0.1937,0.1937,0,0,0,0,0,0,0.1751,0.1744,0.1906,0.191,0.1836,0.1881,0.1893,0.1936,0.1936,0.1939,0.1958,0.1959,0.1954,0.1953,0.1952,0.1976,0.1951,0.1951,0.195,0.1937,0.1937,0.1937,0,0,0,0,0,0,0.1746,0.1765,0.1904,0.1832,0.1848,0.1886,0.1932,0.1937,0.1948,0.1953,0.1954,0.1968,0.1954,0.1953,0.1952,0.1974,0.195,0.195,0.1937,0.1937,0.1937,0.1996,0,0,0,0,0,0,0.174,0.1764,0.1795,0.1835,0.1853,0.1933,0.1933,0.1937,0.1961,0.1963,0.1962,0.1961,0.1955,0.1953,0.1951,0.1973,0.1949,0.1937,0.1937,0.1937,0.1994,0.1999,0.2002,0,0,0,0,0,0.1732,0.1789,0.1796,0.1816,0.1898,0.1934,0.1939,0.196,0.1961,0.197,0.1965,0.1962,0.1953,0.1952,0.195,0.1972,0.1937,0.1937,0.1937,0.1993,0.1998,0.2002,0,0,0,0,0,0,0.1728,0.1797,0.1806,0.1887,0.1909,0.1939,0.1959,0.1965,0.1968,0.1967,0.1961,0.196,0.1971,0.1954,0.1954,0.1966,0.1945,0.1945,0.1988,0.1992,0.1996,0.207,0.1948,0,0,0,0,0,0.1737,0.1789,0.1834,0.1896,0.1907,0.1927,0.1944,0.1956,0.1969,0.1971,0.1968,0.1962,0.1967,0.1966,0.1963,0.1964,0.2038,0.1975,0.1979,0.1982,0.2039,0.2165,0.2188,0.1938,0.1938,0.1938,0,0,0.1758,0.18,0.1832,0.1895,0.1911,0.1931,0.1937,0.197,0.1988,0.1968,0.1982,0.1978,0.197,0.198,0.1982,0.197,0.2087,0.1982,0.1986,0.2042,0.2168,0.2194,0.2216,0.1938,0.1938,0.1938,0,0,0.1796,0.1852,0.1885,0.1901,0.1933,0.1946,0.1957,0.1981,0.1994,0.1998,0.2001,0.2028,0.1995,0.2029,0.2033,0.2057,0.2106,0.2025,0.2106,0.2226,0.225,0.2271,0.239,0.2422,0.2023,0.2023,0.2023,0,0.1809,0.1867,0.1898,0.1917,0.1939,0.1953,0.1975,0.1991,0.201,0.2042,0.2006,0.2051,0.2037,0.2109,0.2113,0.2076,0.2147,0.2089,0.2239,0.2262,0.2283,0.24,0.2435,0.2026,0.2026,0.2026,0.2025,0,0.1854,0.1891,0.1912,0.1942,0.1965,0.1992,0.2016,0.2042,0.2048,0.2073,0.2136,0.2135,0.2183,0.216,0.2142,0.2276,0.2279,0.2236,0.2242,0.2314,0.2429,0.2465,0.203,0.2029,0.2028,0.2028,0,0,0.1897,0.1935,0.1937,0.1947,0.198,0.2005,0.2049,0.2108,0.2175,0.2179,0.2279,0.2285,0.2321,0.2333,0.2326,0.2417,0.2609,0.2393,0.2398,0.254,0.2893,0.2875,0.2912,0.2592,0.2598,0.2603,0.2911,0,0.1912,0.1943,0.1967,0.1999,0.2014,0.2052,0.2102,0.216,0.2211,0.2307,0.2355,0.2432,0.2374,0.2418,0.2505,0.2594,0.2706,0.2531,0.2779,0.2788,0.2788,0.2954,0.29,0.3169,0.2946,0.2952,0.2956,0,0.1925,0.1952,0.1976,0.2034,0.205,0.2077,0.2187,0.224,0.238,0.2429,0.2537,0.2585,0.2742,0.2663,0.2911,0.2802,0.2875,0.2927,0.2939,0.2944,0.2839,0.306,0.3242,0.3123,0.3011,0.3007,0.3003,0,0.1906,0.1953,0.1973,0.1987,0.2059,0.2099,0.2155,0.2279,0.2366,0.2542,0.2642,0.2799,0.2914,0.3039,0.3133,0.3056,0.3399,0.33,0.3362,0.3361,0.3381,0.337,0.3512,0.3508,0.3507,0.3506,0.3505,0,0.1904,0.1921,0.1966,0.1978,0.2042,0.2099,0.2215,0.2295,0.2467,0.2604,0.272,0.2875,0.3019,0.3198,0.3253,0.3447,0.3509,0.3463,0.3472,0.3391,0.3379,0.3323,0.3219,0.3518,0.3515,0.3513,0.3511,0,0.1883,0.1893,0.1926,0.2,0.2023,0.2076,0.2227,0.2342,0.2493,0.269,0.2763,0.3007,0.3253,0.3377,0.3612,0.3622,0.3689,0.3808,0.3704,0.3695,0.3613,0.3512,0.3572,0.3472,0.3982,0.3984,0.3986,0,0.1917,0.1915,0.1937,0.1974,0.2008,0.2102,0.2191,0.2329,0.2454,0.2764,0.2867,0.3167,0.3363,0.3714,0.3815,0.3986,0.3785,0.4005,0.3844,0.3686,0.3581,0.3356,0.3248,0.3898,0.3899,0.3899,0.39,0,0.2008,0.1963,0.1992,0.2039,0.2099,0.2172,0.2296,0.2382,0.2582,0.2751,0.3015,0.3205,0.3549,0.3739,0.3953,0.4022,0.3812,0.4021,0.391,0.3609,0.333,0.3209,0.36,0.3905,0.3905,0.3905,0.3904,0.3904,0.2127,0.2135,0.2146,0.2175,0.2209,0.2266,0.233,0.2471,0.2643,0.2875,0.3055,0.3291,0.3598,0.3915,0.3937,0.3961,0.3859,0.3902,0.3827,0.364,0.3438,0.3841,0.4093,0.4093,0.4094,0.4094,0.4094,0,0.2331,0.2302,0.2325,0.2336,0.2336,0.2333,0.2432,0.2487,0.2641,0.2838,0.3034,0.336,0.3577,0.3733,0.3895,0.38,0.3583,0.3701,0.3384,0.3312,0.3771,0.3658,0.3761,0.3761,0.3761,0.3761,0.3761,0.3761,0.2482,0.2498,0.2435,0.2454,0.2446,0.2459,0.2489,0.2538,0.2635,0.2822,0.2971,0.3137,0.3435,0.3676,0.3648,0.3571,0.3257,0.3168,0.3068,0.3391,0.3401,0.3411,0.3283,0.3306,0.3305,0.2523,0.2517,0.2512]},{"header":{"parameterUnit":"m.s-1","parameterCategory":2,"la1":30.2991,"la2":30.254,"lo1":-89.0895,"lo2":-89.0444,"dy":0.0017,"dx":0.0017,"nx":28,"ny":28,"refTime":"2024-06-23T09:00:00:Z","depth":"0","parameterNumber":3,"parameterNumberName":"V-component_of_CURRENTS"},"data":[0,0,0,0,0,0,0,0,0,0,0,0,0,0,0,0,0,0,0,0,0,0,0,0,0,0,0,0,0,0,0,0,0,0,0,0,0,0,0,0,0,0,0,0,0,0,0,0,0,0,0,0,0,0,0,0,0,0,-0.0182,-0.0181,0,-0.0143,-0.0143,-0.0143,-0.0182,-0.0184,-0.0186,-0.0187,-0.0192,-0.0191,-0.019,0,0,0,0,0,0,0,0,0,0,0,0,0,-0.0239,-0.0238,-0.0182,-0.0181,-0.0181,-0.0144,-0.0143,-0.0142,-0.0182,-0.0184,-0.0186,-0.0188,-0.0193,-0.0191,-0.019,0,0,0,0,0,0,0,0,0,0,0,0,0,-0.0209,-0.0238,-0.0182,-0.0196,-0.0197,-0.0144,-0.0143,-0.0142,-0.0182,-0.0184,-0.0186,-0.0189,-0.0193,-0.0191,-0.0189,-0.0131,0,0,-0.0184,-0.0183,0,0,0,0,0,0,0,0,-0.0211,-0.0207,-0.0194,-0.0195,-0.0196,-0.017,-0.0165,-0.0141,-0.0181,-0.0188,-0.0187,-0.019,-0.0187,-0.0186,-0.0173,-0.0132,-0.0132,-0.0183,-0.0182,-0.0181,-0.0181,0,0,0,0,0,0,0,-0.0213,-0.0209,-0.0167,-0.0194,-0.0195,-0.0187,-0.0186,-0.016,-0.0176,-0.0187,-0.019,-0.0185,-0.0188,-0.0175,-0.0174,-0.0132,-0.0183,-0.0182,-0.0181,-0.018,-0.0102,-0.0101,0,0,0,0,0,0,-0.0217,-0.0211,-0.0168,-0.0165,-0.0209,-0.0185,-0.0183,-0.0176,-0.0175,-0.0177,-0.0183,-0.0187,-0.0177,-0.0176,-0.0174,-0.0136,-0.0181,-0.018,-0.0178,-0.0103,-0.0101,-0.01,0,0,0,0,0,0,-0.0219,-0.0214,-0.0169,-0.0187,-0.0182,-0.0182,-0.0173,-0.0174,-0.017,-0.0171,-0.0175,-0.018,-0.0179,-0.0177,-0.0154,-0.0136,-0.0179,-0.0177,-0.0104,-0.0102,-0.0101,-0.0041,0,0,0,0,0,0,-0.022,-0.0214,-0.0202,-0.0188,-0.0181,-0.0128,-0.0171,-0.0172,-0.0163,-0.0168,-0.0169,-0.0171,-0.018,-0.0157,-0.0152,-0.0134,-0.0175,-0.0105,-0.0103,-0.0101,-0.0044,-0.0038,-0.0032,0,0,0,0,0,-0.0222,-0.0181,-0.0202,-0.0196,-0.0167,-0.0126,-0.0121,-0.013,-0.016,-0.0139,-0.0152,-0.0172,-0.0144,-0.0154,-0.0149,-0.013,-0.0106,-0.0103,-0.0101,-0.0047,-0.0039,-0.0032,0,0,0,0,0,0,-0.0183,-0.0181,-0.0204,-0.0162,-0.0149,-0.0133,-0.0107,-0.0124,-0.0114,-0.0126,-0.0146,-0.0147,-0.0125,-0.013,-0.0141,-0.0105,-0.0133,-0.0129,-0.0093,-0.0085,-0.008,-0.0045,-0.0174,0,0,0,0,0,-0.0173,-0.0157,-0.0151,-0.0119,-0.0111,-0.0114,-0.0099,-0.0108,-0.01,-0.01,-0.0105,-0.0112,-0.0107,-0.0101,-0.0093,-0.0057,-0.0061,-0.0047,-0.0041,-0.0036,-0.0005,-0.0003,0.0007,-0.0094,-0.0094,-0.0094,0,0,-0.0149,-0.0146,-0.0136,-0.0112,-0.0105,-0.0072,-0.011,-0.008,-0.006,-0.0099,-0.007,-0.0086,-0.0094,-0.0065,-0.0056,-0.0069,-0.0012,-0.0033,-0.0029,0.0,0.0001,0.0011,0.0019,-0.0092,-0.0093,-0.0093,0,0,-0.008,-0.0091,-0.0054,-0.0042,-0.0028,-0.003,-0.0024,-0.0013,-0.0016,0.0012,-0.0023,-0.002,-0.0005,-0.0006,-0.0006,0.0043,0.0018,0.0031,0.0097,0.0098,0.0107,0.0114,0.0114,0.0121,0.0036,0.0036,0.0036,0,-0.0054,-0.0011,-0.0031,0.0009,0.0027,-0.0013,0.0036,0.0037,0.0051,0.0069,0.0027,0.0052,0.0028,0.0072,0.0072,0.0059,0.0053,0.0069,0.0107,0.0114,0.0121,0.0119,0.0126,0.0039,0.0039,0.0038,0.0038,0,0.0042,0.0069,0.0098,0.0117,0.0137,0.0176,0.0165,0.0178,0.0153,0.0158,0.0189,0.016,0.0182,0.0156,0.0127,0.0167,0.0145,0.011,0.0091,0.0135,0.0129,0.0136,0.0044,0.0043,0.0042,0.0041,0,0,0.0119,0.0155,0.0163,0.0186,0.0195,0.0227,0.0254,0.0289,0.033,0.0308,0.0371,0.0339,0.0323,0.0321,0.028,0.0267,0.0283,0.0212,0.021,0.0217,0.0289,0.0261,0.0265,0.025,0.0252,0.0253,0.0262,0,0.0197,0.0283,0.028,0.0355,0.0398,0.037,0.0412,0.043,0.0433,0.0482,0.0442,0.0485,0.0386,0.0404,0.0373,0.0322,0.0305,0.0285,0.0242,0.0242,0.0216,0.0274,0.0272,0.0279,0.0268,0.0269,0.027,0,0.0293,0.0336,0.0422,0.0476,0.0495,0.0528,0.0586,0.0625,0.0663,0.0676,0.0693,0.0669,0.067,0.0566,0.0504,0.0495,0.0404,0.034,0.0338,0.0305,0.0228,0.0234,0.029,0.0065,0.0279,0.0278,0.0278,0,0.0361,0.0436,0.0503,0.0521,0.0575,0.061,0.0641,0.0688,0.0763,0.0814,0.0888,0.0852,0.088,0.0759,0.0613,0.0568,0.0532,0.0455,0.0345,0.0342,0.0332,0.0325,0.0176,0.0409,0.0409,0.0409,0.0409,0,0.0451,0.0511,0.0538,0.0578,0.0674,0.0688,0.0811,0.0831,0.0929,0.1071,0.1005,0.1115,0.093,0.0881,0.0697,0.0561,0.06,0.0388,0.0355,0.035,0.0345,0.0141,0.0041,0.0409,0.0409,0.0409,0.0409,0,0.0547,0.0548,0.0635,0.069,0.0707,0.0786,0.0916,0.1031,0.1094,0.1279,0.1317,0.1337,0.1279,0.1069,0.0897,0.0712,0.0444,0.0479,0.0484,0.0451,0.0126,0.0032,-0.0064,-0.0152,0.0378,0.0377,0.0377,0,0.0634,0.0683,0.0723,0.078,0.0811,0.0924,0.1025,0.11,0.124,0.1442,0.1553,0.1557,0.1604,0.133,0.0975,0.0667,0.0456,0.0461,0.0368,0.0136,0.0006,-0.0052,-0.0124,0.0372,0.0372,0.0372,0.0371,0,0.0828,0.0806,0.0869,0.0959,0.1046,0.1169,0.1311,0.1436,0.1585,0.174,0.1951,0.2007,0.1752,0.1458,0.1012,0.0781,0.0327,0.0445,0.0212,0.0012,-0.0062,-0.0172,0.0327,0.0369,0.0369,0.0369,0.0369,0.0369,0.0998,0.106,0.1111,0.1196,0.1287,0.1435,0.1567,0.1747,0.1975,0.2233,0.2242,0.2349,0.1888,0.1288,0.0929,0.0267,0.0298,0.0067,-0.0019,-0.0052,-0.0161,0.0334,0.0327,0.0327,0.0327,0.0327,0.0327,0,0.1238,0.1268,0.1368,0.1458,0.1572,0.1571,0.1786,0.1939,0.2214,0.2425,0.2582,0.2406,0.1831,0.1206,0.0328,-0.0123,-0.0281,-0.0362,-0.047,-0.0517,-0.0076,-0.0107,-0.0214,-0.0214,-0.0214,-0.0213,-0.0213,-0.0213,0.1375,0.1491,0.1494,0.1696,0.1763,0.1938,0.2058,0.2269,0.2435,0.2694,0.2745,0.2752,0.2247,0.0714,-0.0347,-0.0581,-0.0876,-0.0916,-0.1065,-0.0818,-0.0787,-0.0756,-0.0813,-0.1067,-0.1068,-0.147,-0.1474,-0.1478]}],[{"header":{"parameterUnit":"m.s-1","parameterCategory":2,"la1":30.2991,"la2":30.254,"lo1":-89.0895,"lo2":-89.0444,"dy":0.0017,"dx":0.0017,"nx":28,"ny":28,"refTime":"2024-06-23T09:00:00:Z","depth":"2","parameterNumber":2,"parameterNumberName":"U-component_of_CURRENTS"},"data":[0,0,0,0,0,0,0,0,0,0,0,0,0,0,0,0,0,0,0,0,0,0,0,0,0,0,0,0,0,0,0,0,0,0,0,0,0,0,0,0,0,0,0,0,0,0,0,0,0,0,0,0,0,0,0,0,0,0,0.1579,0.158,0,0.1726,0.1729,0.1731,0.1804,0.1804,0.1804,0.1803,0.1809,0.181,0.181,0,0,0,0,0,0,0,0,0,0,0,0,0,0.1431,0.1433,0.1579,0.158,0.1582,0.1726,0.1729,0.1731,0.1805,0.1804,0.1804,0.1803,0.1809,0.181,0.181,0,0,0,0,0,0,0,0,0,0,0,0,0,0.1533,0.1434,0.1579,0.1632,0.1638,0.1726,0.1729,0.1732,0.1805,0.1804,0.1803,0.1803,0.1809,0.181,0.181,0.1828,0,0,0.1813,0.1813,0,0,0,0,0,0,0,0,0.1527,0.1539,0.1623,0.1629,0.1635,0.1742,0.1679,0.1755,0.1805,0.1747,0.1803,0.1803,0.1771,0.1775,0.1813,0.1828,0.1828,0.1813,0.1813,0.1814,0.1814,0,0,0,0,0,0,0,0.152,0.1533,0.1642,0.1624,0.1632,0.1672,0.1686,0.1695,0.1761,0.1752,0.1756,0.1765,0.1774,0.1812,0.1813,0.1828,0.1813,0.1814,0.1814,0.1815,0.1843,0.1843,0,0,0,0,0,0,0.1489,0.1526,0.1638,0.1646,0.1573,0.1675,0.1691,0.1713,0.1765,0.1772,0.1765,0.1768,0.1811,0.1812,0.1813,0.1845,0.1814,0.1815,0.1815,0.1842,0.1843,0.1843,0,0,0,0,0,0,0.1486,0.1498,0.1632,0.1585,0.1604,0.1677,0.1702,0.1716,0.1776,0.1776,0.1781,0.1813,0.1811,0.1812,0.1823,0.1845,0.1815,0.1816,0.1842,0.1842,0.1843,0.1902,0,0,0,0,0,0,0.1481,0.1497,0.1513,0.1583,0.1605,0.1706,0.1702,0.1719,0.1779,0.1784,0.1818,0.1817,0.181,0.1821,0.1823,0.1845,0.1816,0.1842,0.1842,0.1843,0.19,0.1905,0.1909,0,0,0,0,0,0.1476,0.1508,0.1514,0.1527,0.1623,0.1708,0.1726,0.1777,0.1781,0.1826,0.1823,0.1817,0.1825,0.1823,0.1825,0.1848,0.1841,0.1842,0.1843,0.1898,0.1904,0.1908,0,0,0,0,0,0,0.1463,0.1519,0.1528,0.1577,0.1642,0.1719,0.1766,0.1793,0.1835,0.1833,0.1826,0.1826,0.1843,0.1833,0.183,0.1853,0.1831,0.1832,0.1872,0.1877,0.1882,0.1927,0.1817,0,0,0,0,0,0.1461,0.1496,0.1559,0.1602,0.1637,0.1704,0.1746,0.1782,0.182,0.1843,0.1843,0.184,0.1847,0.1852,0.1853,0.1872,0.1912,0.1884,0.1888,0.1892,0.1928,0.2,0.2015,0.1845,0.1845,0.1845,0,0,0.1467,0.1502,0.1523,0.1601,0.1657,0.1712,0.1732,0.1809,0.1841,0.183,0.186,0.1859,0.1854,0.1872,0.1878,0.1868,0.1961,0.1893,0.1897,0.1932,0.2002,0.2019,0.2035,0.1845,0.1845,0.1845,0,0,0.1508,0.1533,0.1584,0.1631,0.1709,0.1742,0.1765,0.1838,0.1865,0.1892,0.1885,0.1907,0.19,0.1919,0.1923,0.1954,0.198,0.1937,0.2003,0.207,0.2086,0.2101,0.2179,0.22,0.194,0.194,0.194,0,0.1511,0.1573,0.1616,0.1674,0.1704,0.1752,0.1809,0.1847,0.1901,0.1924,0.19,0.194,0.1932,0.1985,0.1992,0.197,0.2014,0.1985,0.2081,0.2096,0.211,0.2186,0.2209,0.1943,0.1943,0.1943,0.1942,0,0.1599,0.1632,0.1671,0.1737,0.1783,0.1841,0.1882,0.192,0.193,0.1959,0.201,0.2012,0.2048,0.2036,0.2025,0.2116,0.2118,0.208,0.2078,0.2132,0.2207,0.223,0.1947,0.1946,0.1945,0.1945,0,0,0.1643,0.1713,0.1725,0.1744,0.1813,0.1859,0.1906,0.1974,0.2027,0.2046,0.2116,0.213,0.2155,0.2164,0.2161,0.2217,0.2345,0.2198,0.22,0.2295,0.2518,0.2445,0.2463,0.2325,0.2329,0.2332,0.2534,0,0.1698,0.1772,0.1804,0.186,0.1896,0.1931,0.1974,0.2031,0.2075,0.2144,0.2174,0.2233,0.2195,0.2233,0.2285,0.2331,0.2406,0.2296,0.2436,0.2441,0.2386,0.2487,0.2296,0.2452,0.2556,0.2559,0.2562,0,0.1771,0.1805,0.1861,0.1899,0.1927,0.1963,0.2046,0.21,0.22,0.2242,0.2319,0.235,0.245,0.2397,0.2545,0.2477,0.2521,0.2547,0.2554,0.249,0.2411,0.2412,0.2489,0.26,0.2597,0.2594,0.2592,0,0.1759,0.1833,0.1862,0.1879,0.1947,0.1982,0.203,0.213,0.2199,0.2328,0.2407,0.2501,0.2577,0.2643,0.2689,0.2642,0.2841,0.2775,0.2762,0.2757,0.2626,0.2602,0.2906,0.2905,0.2905,0.2904,0.2904,0,0.1775,0.1797,0.1856,0.187,0.1928,0.1985,0.208,0.2146,0.2277,0.2376,0.2469,0.2563,0.2646,0.2747,0.2766,0.2843,0.2911,0.2824,0.2818,0.2637,0.2613,0.2752,0.2731,0.2912,0.291,0.2909,0.2907,0,0.1737,0.1775,0.181,0.1886,0.1914,0.1958,0.2088,0.2173,0.2306,0.2447,0.25,0.2656,0.2797,0.2873,0.2995,0.2954,0.3017,0.3022,0.2808,0.2773,0.2878,0.2858,0.3065,0.3064,0.3064,0.3063,0.3063,0,0.1716,0.1731,0.1806,0.1845,0.1877,0.196,0.2032,0.2161,0.2253,0.2482,0.2542,0.2741,0.2835,0.3001,0.2999,0.307,0.3077,0.2899,0.2765,0.2928,0.2902,0.2883,0.2864,0.2628,0.2624,0.2621,0.2618,0,0.1683,0.1711,0.1751,0.1821,0.1886,0.1959,0.2061,0.2116,0.2287,0.2404,0.255,0.2651,0.2853,0.2832,0.2925,0.2909,0.2866,0.2835,0.3103,0.2591,0.2525,0.2495,0.249,0.259,0.2593,0.2595,0.2597,0.2598,0.1661,0.1677,0.1737,0.1791,0.1873,0.1922,0.1942,0.2041,0.2129,0.2257,0.2421,0.2518,0.2633,0.2675,0.2633,0.261,0.2782,0.2653,0.266,0.2671,0.2558,0.2491,0.2532,0.2534,0.2537,0.2538,0.254,0,0.1606,0.1643,0.1707,0.1757,0.1799,0.1868,0.1942,0.1915,0.193,0.2119,0.2215,0.2138,0.2201,0.2321,0.2263,0.2276,0.2215,0.2177,0.2089,0.2122,0.215,0.2004,0.1835,0.1833,0.183,0.1827,0,0,0.1581,0.1591,0.1612,0.1649,0.1701,0.1708,0.1713,0.1666,0.1743,0.175,0.1833,0.2083,0.226,0.2004,0.2008,0.1918,0.1984,0.1843,0.2423,0.2353,0.2376,0.2457,0.2276,0,0,0,0,0]},{"header":{"parameterUnit":"m.s-1","parameterCategory":2,"la1":30.2991,"la2":30.254,"lo1":-89.0895,"lo2":-89.0444,"dy":0.0017,"dx":0.0017,"nx":28,"ny":28,"refTime":"2024-06-23T09:00:00:Z","depth":"2","parameterNumber":3,"parameterNumberName":"V-component_of_CURRENTS"},"data":[0,0,0,0,0,0,0,0,0,0,0,0,0,0,0,0,0,0,0,0,0,0,0,0,0,0,0,0,0,0,0,0,0,0,0,0,0,0,0,0,0,0,0,0,0,0,0,0,0,0,0,0,0,0,0,0,0,0,-0.034,-0.0339,0,-0.03,-0.0299,-0.0299,-0.0331,-0.0333,-0.0334,-0.0336,-0.0363,-0.0362,-0.0361,0,0,0,0,0,0,0,0,0,0,0,0,0,-0.0371,-0.037,-0.034,-0.0339,-0.0339,-0.03,-0.0299,-0.0299,-0.0331,-0.0333,-0.0335,-0.0337,-0.0363,-0.0362,-0.0361,0,0,0,0,0,0,0,0,0,0,0,0,0,-0.0345,-0.037,-0.034,-0.0352,-0.0353,-0.03,-0.0299,-0.0299,-0.0331,-0.0333,-0.0335,-0.0338,-0.0363,-0.0362,-0.0361,-0.0308,0,0,-0.0358,-0.0357,0,0,0,0,0,0,0,0,-0.0347,-0.0344,-0.035,-0.0351,-0.0352,-0.0325,-0.032,-0.0306,-0.033,-0.0337,-0.0336,-0.0339,-0.0355,-0.0355,-0.0339,-0.0309,-0.031,-0.0358,-0.0357,-0.0356,-0.0356,0,0,0,0,0,0,0,-0.0348,-0.0345,-0.0322,-0.035,-0.0351,-0.0335,-0.0334,-0.0317,-0.0334,-0.0337,-0.0339,-0.0337,-0.0357,-0.034,-0.034,-0.0311,-0.0358,-0.0357,-0.0356,-0.0355,-0.0315,-0.0315,0,0,0,0,0,0,-0.0358,-0.0347,-0.0323,-0.0321,-0.0357,-0.0333,-0.0332,-0.033,-0.0332,-0.0335,-0.0335,-0.0339,-0.0341,-0.0341,-0.0341,-0.0323,-0.0356,-0.0355,-0.0355,-0.0316,-0.0315,-0.0315,0,0,0,0,0,0,-0.0359,-0.0356,-0.0325,-0.0335,-0.033,-0.033,-0.0327,-0.0328,-0.0319,-0.0331,-0.0335,-0.0328,-0.0342,-0.0343,-0.0336,-0.0324,-0.0355,-0.0354,-0.0316,-0.0316,-0.0315,-0.0259,0,0,0,0,0,0,-0.036,-0.0357,-0.0354,-0.0335,-0.033,-0.0286,-0.0325,-0.0325,-0.0315,-0.0319,-0.0326,-0.033,-0.0344,-0.0338,-0.0335,-0.0323,-0.0353,-0.0317,-0.0316,-0.0315,-0.0262,-0.0257,-0.0253,0,0,0,0,0,-0.0361,-0.0332,-0.0354,-0.0351,-0.0328,-0.0284,-0.0279,-0.0286,-0.0312,-0.029,-0.0312,-0.033,-0.0332,-0.0335,-0.0333,-0.032,-0.0317,-0.0316,-0.0315,-0.0264,-0.0258,-0.0253,0,0,0,0,0,0,-0.0333,-0.0332,-0.0356,-0.0328,-0.0312,-0.0291,-0.0266,-0.0279,-0.0274,-0.0285,-0.0311,-0.0315,-0.0311,-0.0318,-0.0322,-0.0309,-0.0332,-0.033,-0.0294,-0.0288,-0.0284,-0.0271,-0.0352,0,0,0,0,0,-0.033,-0.0317,-0.0312,-0.029,-0.0279,-0.0276,-0.0261,-0.0265,-0.026,-0.026,-0.0273,-0.0289,-0.0299,-0.0298,-0.0303,-0.0277,-0.0297,-0.0273,-0.0269,-0.0265,-0.0254,-0.0283,-0.028,-0.0312,-0.0312,-0.0312,0,0,-0.0316,-0.0312,-0.0307,-0.0284,-0.0273,-0.0242,-0.0271,-0.0237,-0.0226,-0.0262,-0.0249,-0.027,-0.0291,-0.0278,-0.0277,-0.0284,-0.0265,-0.0264,-0.026,-0.0251,-0.0281,-0.0278,-0.0276,-0.0311,-0.0311,-0.0311,0,0,-0.0257,-0.0274,-0.0238,-0.0225,-0.0205,-0.0205,-0.0197,-0.018,-0.0187,-0.017,-0.0211,-0.0223,-0.0219,-0.0237,-0.0247,-0.0216,-0.0245,-0.0222,-0.0178,-0.0206,-0.0204,-0.0202,-0.0215,-0.0215,-0.0214,-0.0214,-0.0213,0,-0.0244,-0.0206,-0.0216,-0.0175,-0.0165,-0.019,-0.0149,-0.0148,-0.0138,-0.0142,-0.0162,-0.0181,-0.0201,-0.0201,-0.0197,-0.0205,-0.0221,-0.0196,-0.02,-0.0198,-0.0197,-0.0212,-0.0212,-0.0211,-0.0211,-0.0211,-0.0212,0,-0.0152,-0.0136,-0.0106,-0.0085,-0.0069,-0.0034,-0.0046,-0.0044,-0.0067,-0.0076,-0.0082,-0.0108,-0.0118,-0.0133,-0.0153,-0.0154,-0.0168,-0.0196,-0.0211,-0.0191,-0.0207,-0.0209,-0.0207,-0.0208,-0.0209,-0.0209,0,0,-0.0087,-0.0055,-0.0045,-0.0039,-0.0025,-0.0002,0.0008,0.0014,0.0024,0.0003,0.0014,-0.0018,-0.0038,-0.005,-0.0081,-0.0105,-0.0115,-0.0138,-0.0141,-0.0147,-0.0164,-0.0217,-0.0224,-0.0145,-0.0145,-0.0145,-0.0175,0,-0.0017,0.0055,0.0057,0.0103,0.0129,0.0096,0.0114,0.0106,0.0094,0.0097,0.0043,0.0051,-0.0004,0.0003,-0.0035,-0.0093,-0.0117,-0.0103,-0.0187,-0.0189,-0.0235,-0.0227,-0.0193,-0.0221,-0.0177,-0.0177,-0.0178,0,0.0078,0.0102,0.0166,0.0172,0.0184,0.0207,0.0212,0.023,0.0214,0.0211,0.0192,0.0153,0.0119,0.007,-0.0021,-0.0009,-0.0075,-0.013,-0.0133,-0.0202,-0.0245,-0.0237,-0.0226,-0.018,-0.018,-0.018,-0.018,0,0.0127,0.0175,0.0217,0.0223,0.0239,0.0253,0.0262,0.0266,0.0296,0.0293,0.0318,0.0251,0.0249,0.0139,0.0016,0.0005,-0.0093,-0.0124,-0.0235,-0.0238,-0.0235,-0.024,-0.0189,-0.0189,-0.0188,-0.0188,-0.0188,0,0.0196,0.0223,0.024,0.026,0.031,0.0307,0.0373,0.037,0.0403,0.0448,0.0392,0.0399,0.0267,0.0184,0.005,-0.0097,-0.0069,-0.0222,-0.0252,-0.0216,-0.0217,-0.0206,-0.0208,-0.019,-0.0189,-0.0189,-0.0189,0,0.0236,0.0256,0.0297,0.0321,0.0338,0.0374,0.0446,0.0495,0.0523,0.0581,0.0587,0.0528,0.0429,0.0281,0.0117,-0.0029,-0.0182,-0.0242,-0.0186,-0.0211,-0.0312,-0.0311,-0.0356,-0.0359,-0.036,-0.0362,-0.0363,0,0.0245,0.0279,0.0336,0.0381,0.0397,0.046,0.0516,0.0555,0.0605,0.064,0.0657,0.0602,0.0549,0.0294,0.0053,-0.0167,-0.0192,-0.0304,-0.0333,-0.0306,-0.0331,-0.0326,-0.0322,-0.0295,-0.0296,-0.0297,-0.0297,0,0.0249,0.0287,0.0328,0.0425,0.0491,0.0564,0.063,0.0679,0.0725,0.0778,0.0792,0.0758,0.0552,0.0332,0.0032,-0.0138,-0.0271,-0.0325,-0.0302,-0.0272,-0.0255,-0.0278,-0.0274,-0.0302,-0.0301,-0.0301,-0.03,-0.03,0.0231,0.0276,0.0352,0.0437,0.0538,0.0614,0.0676,0.0744,0.0817,0.089,0.0862,0.0864,0.0626,0.0265,-0.0022,-0.0302,-0.03,-0.0403,-0.0398,-0.0393,-0.0394,-0.0384,-0.0452,-0.0453,-0.0453,-0.0453,-0.0454,0,0.0171,0.025,0.0347,0.0446,0.0546,0.0613,0.0717,0.0788,0.0858,0.097,0.1017,0.0823,0.0576,0.0324,-0.009,-0.0377,-0.0381,-0.0459,-0.0386,-0.0381,-0.0376,-0.0374,-0.0428,-0.0429,-0.0429,-0.043,0,0,0.0133,0.0204,0.0265,0.0391,0.0497,0.0629,0.0689,0.082,0.0934,0.1029,0.1081,0.1075,0.0729,0.0438,0.0066,-0.0162,-0.0207,-0.0218,-0.0212,-0.0077,-0.0068,-0.0323,-0.0313,0,0,0,0,0]}],[{"header":{"parameterUnit":"m.s-1","parameterCategory":2,"la1":30.2991,"la2":30.254,"lo1":-89.0895,"lo2":-89.0444,"dy":0.0017,"dx":0.0017,"nx":28,"ny":28,"refTime":"2024-06-23T09:00:00:Z","depth":"4","parameterNumber":2,"parameterNumberName":"U-component_of_CURRENTS"},"data":[0,0,0,0,0,0,0,0,0,0,0,0,0,0,0,0,0,0,0,0,0,0,0,0,0,0,0,0,0,0,0,0,0,0,0,0,0,0,0,0,0,0,0,0,0,0,0,0,0,0,0,0,0,0,0,0,0,0,0.0872,0.0872,0,0.0941,0.0941,0.0942,0.0995,0.0995,0.0996,0.0997,0.1075,0.1076,0.1077,0,0,0,0,0,0,0,0,0,0,0,0,0,0.0777,0.0778,0.0871,0.0873,0.0874,0.094,0.0941,0.0942,0.0995,0.0995,0.0996,0.0997,0.1074,0.1076,0.1078,0,0,0,0,0,0,0,0,0,0,0,0,0,0.0828,0.0779,0.0871,0.0909,0.0913,0.094,0.0941,0.0942,0.0994,0.0995,0.0996,0.0997,0.1074,0.1076,0.1078,0.1072,0,0,0.1085,0.1086,0,0,0,0,0,0,0,0,0.0825,0.0831,0.0902,0.0907,0.0911,0.0961,0.0937,0.0987,0.0994,0.0962,0.0997,0.0998,0.1038,0.1043,0.1051,0.1076,0.1079,0.1085,0.1086,0.1087,0.1088,0,0,0,0,0,0,0,0.0821,0.0828,0.0897,0.0904,0.0909,0.092,0.0928,0.0946,0.0992,0.0965,0.0969,0.0979,0.104,0.1049,0.1054,0.108,0.1085,0.1087,0.1088,0.1089,0.1193,0.1195,0,0,0,0,0,0,0.0816,0.0825,0.0895,0.0899,0.0871,0.0921,0.093,0.0943,0.0992,0.1001,0.0978,0.0981,0.1045,0.1051,0.1057,0.1135,0.1087,0.1089,0.109,0.1192,0.1193,0.1195,0,0,0,0,0,0,0.0813,0.0821,0.0892,0.0865,0.0875,0.0922,0.0936,0.0944,0.098,0.1003,0.1012,0.1009,0.1046,0.1054,0.1105,0.1136,0.109,0.1092,0.119,0.1192,0.1194,0.1239,0,0,0,0,0,0,0.081,0.082,0.0837,0.0864,0.0876,0.0931,0.0935,0.0945,0.0983,0.0989,0.1031,0.1038,0.1047,0.1102,0.1107,0.1138,0.1094,0.1188,0.1191,0.1194,0.1236,0.1243,0.1249,0,0,0,0,0,0.0807,0.0826,0.0837,0.0847,0.0895,0.0932,0.094,0.0974,0.0984,0.1008,0.104,0.1038,0.1123,0.1105,0.1111,0.1143,0.1187,0.119,0.1193,0.1233,0.1242,0.1249,0,0,0,0,0,0,0.0795,0.0834,0.0847,0.0879,0.0913,0.0942,0.097,0.0986,0.1028,0.1042,0.1057,0.1067,0.1121,0.1126,0.1106,0.1181,0.1154,0.1159,0.1182,0.119,0.1196,0.1195,0.1096,0,0,0,0,0,0.0798,0.0827,0.0861,0.089,0.0908,0.0941,0.0963,0.0988,0.1023,0.1044,0.1073,0.1105,0.1133,0.1159,0.1183,0.1224,0.1239,0.1249,0.1255,0.126,0.1265,0.1318,0.1329,0.1206,0.1206,0.1206,0,0,0.0799,0.0828,0.0843,0.089,0.0919,0.0955,0.0958,0.1004,0.1038,0.1044,0.1108,0.1129,0.1149,0.1199,0.1224,0.1212,0.1305,0.1265,0.1269,0.127,0.1322,0.1334,0.1345,0.1208,0.1207,0.1207,0,0,0.0818,0.0845,0.0877,0.0909,0.0961,0.0982,0.1,0.1046,0.1075,0.1131,0.1143,0.1182,0.1234,0.1252,0.1266,0.132,0.1334,0.1335,0.1371,0.1423,0.1434,0.1443,0.1484,0.1496,0.1341,0.1341,0.1341,0,0.0819,0.0865,0.0892,0.0932,0.0964,0.0996,0.1037,0.1068,0.1128,0.1152,0.1163,0.1239,0.1256,0.1305,0.1329,0.1334,0.1368,0.134,0.1431,0.1441,0.145,0.1489,0.1502,0.1344,0.1344,0.1343,0.1343,0,0.086,0.0902,0.0926,0.0987,0.1022,0.1066,0.1107,0.1148,0.1184,0.1213,0.1279,0.1305,0.1353,0.1362,0.1366,0.1436,0.1442,0.143,0.1411,0.1465,0.1503,0.1516,0.1348,0.1347,0.1346,0.1345,0,0,0.0843,0.0936,0.0948,0.0984,0.1058,0.1087,0.1146,0.1202,0.1244,0.1298,0.1353,0.1399,0.142,0.1437,0.1448,0.1488,0.1578,0.1497,0.1498,0.1534,0.1704,0.1611,0.1616,0.1596,0.1599,0.1601,0.1708,0,0.0871,0.0952,0.0993,0.1066,0.1107,0.1153,0.1201,0.1255,0.1306,0.1367,0.1395,0.1457,0.1447,0.1485,0.1525,0.1571,0.1615,0.1551,0.1648,0.1651,0.1559,0.1629,0.1608,0.1717,0.172,0.1722,0.1724,0,0.0896,0.0949,0.1029,0.1107,0.1129,0.1178,0.1259,0.1309,0.1385,0.143,0.1491,0.1522,0.1596,0.1576,0.1685,0.1655,0.1689,0.1709,0.1714,0.1618,0.1582,0.1651,0.1748,0.1746,0.1744,0.1742,0.1741,0,0.0873,0.0969,0.1035,0.1066,0.1159,0.1202,0.1252,0.1332,0.1379,0.1482,0.1537,0.1613,0.1677,0.1732,0.1784,0.1759,0.1893,0.1858,0.1799,0.1793,0.1823,0.1812,0.1931,0.1931,0.193,0.193,0.193,0,0.0878,0.0928,0.1033,0.1068,0.1136,0.1204,0.128,0.1341,0.1432,0.1502,0.1576,0.1645,0.1726,0.1802,0.1828,0.1863,0.1938,0.182,0.182,0.184,0.1829,0.1833,0.182,0.1934,0.1933,0.1932,0.1932,0,0.0838,0.0915,0.0984,0.1092,0.113,0.1177,0.1288,0.1334,0.1441,0.1539,0.1581,0.1704,0.1816,0.1871,0.197,0.192,0.1955,0.1943,0.1975,0.1973,0.1809,0.1797,0.189,0.1888,0.1886,0.1884,0.1883,0,0.0822,0.0859,0.0986,0.1027,0.1081,0.1164,0.1216,0.1327,0.1384,0.1567,0.1607,0.1753,0.1827,0.1887,0.1953,0.1996,0.1965,0.196,0.1861,0.1817,0.1808,0.18,0.1791,0.188,0.1879,0.1879,0.1878,0,0.0772,0.0831,0.0889,0.098,0.1048,0.1114,0.1206,0.1239,0.1381,0.1495,0.1606,0.167,0.1788,0.1847,0.1892,0.1912,0.1948,0.1939,0.1941,0.1849,0.1805,0.1797,0.1791,0.1872,0.1873,0.1873,0.1874,0,0.0727,0.0753,0.0841,0.0911,0.0993,0.1046,0.1102,0.1188,0.1261,0.146,0.1503,0.1661,0.1786,0.1808,0.1857,0.1867,0.1831,0.1749,0.176,0.1769,0.1676,0.16,0.1619,0,0,0,0,0,0.0672,0.0701,0.0762,0.0839,0.0918,0.097,0.1088,0.1147,0.1293,0.1339,0.1416,0.1524,0.1614,0.1689,0.1676,0.1797,0.1826,0.1772,0.1734,0.1835,0.1842,0.1743,0,0,0,0,0,0,0.0636,0.069,0.0732,0.0767,0.0802,0.088,0.095,0.1051,0.1083,0.1241,0.1298,0.1424,0.1528,0.1605,0.1642,0.1665,0.1609,0.1868,0.1865,0.183,0.1837,0.1844,0.1744,0,0,0,0,0]},{"header":{"parameterUnit":"m.s-1","parameterCategory":2,"la1":30.2991,"la2":30.254,"lo1":-89.0895,"lo2":-89.0444,"dy":0.0017,"dx":0.0017,"nx":28,"ny":28,"refTime":"2024-06-23T09:00:00:Z","depth":"4","parameterNumber":3,"parameterNumberName":"V-component_of_CURRENTS"},"data":[0,0,0,0,0,0,0,0,0,0,0,0,0,0,0,0,0,0,0,0,0,0,0,0,0,0,0,0,0,0,0,0,0,0,0,0,0,0,0,0,0,0,0,0,0,0,0,0,0,0,0,0,0,0,0,0,0,0,0.028,0.0279,0,0.0184,0.0183,0.0182,0.016,0.0161,0.0162,0.0163,0.0033,0.0029,0.0025,0,0,0,0,0,0,0,0,0,0,0,0,0,0.0327,0.0327,0.028,0.0279,0.0278,0.0184,0.0183,0.0182,0.016,0.0161,0.0162,0.0163,0.0035,0.003,0.0025,0,0,0,0,0,0,0,0,0,0,0,0,0,0.0276,0.0327,0.028,0.0257,0.0254,0.0185,0.0183,0.0181,0.016,0.0161,0.0162,0.0163,0.0036,0.003,0.0024,-0.0038,0,0,0.0005,0.0002,0,0,0,0,0,0,0,0,0.0279,0.0274,0.0261,0.0258,0.0255,0.0186,0.0152,0.0107,0.016,0.0194,0.0163,0.0164,0.0081,0.0071,0.005,-0.0044,-0.005,0.0004,0.0001,-0.0002,-0.0004,0,0,0,0,0,0,0,0.0282,0.0277,0.0241,0.026,0.0256,0.0211,0.0206,0.0143,0.0131,0.0191,0.019,0.0181,0.0079,0.0056,0.0046,-0.0052,0.0005,-0.0001,-0.0005,-0.0007,-0.0191,-0.0192,0,0,0,0,0,0,0.0301,0.0281,0.0244,0.0238,0.0271,0.021,0.0204,0.0206,0.0132,0.0123,0.018,0.018,0.0066,0.0054,0.0042,-0.0028,-0.0002,-0.0008,-0.0012,-0.019,-0.0192,-0.0193,0,0,0,0,0,0,0.0303,0.0299,0.0248,0.0257,0.0248,0.0209,0.0211,0.0204,0.0182,0.0124,0.0114,0.0166,0.0066,0.005,-0.0018,-0.0033,-0.0011,-0.0017,-0.0189,-0.0191,-0.0192,-0.0173,0,0,0,0,0,0,0.0305,0.0301,0.0304,0.0259,0.0248,0.0203,0.0209,0.0201,0.0175,0.0175,0.0108,0.0098,0.0066,-0.0008,-0.0024,-0.0041,-0.0021,-0.0187,-0.019,-0.0192,-0.0172,-0.0173,-0.0175,0,0,0,0,0,0.0307,0.0302,0.0305,0.03,0.0257,0.0202,0.0191,0.0166,0.0174,0.0153,0.0113,0.01,-0.0032,-0.0015,-0.0033,-0.0052,-0.0186,-0.0189,-0.0191,-0.0171,-0.0173,-0.0175,0,0,0,0,0,0,0.0318,0.0298,0.0301,0.029,0.0251,0.0199,0.0177,0.0164,0.0116,0.0116,0.0073,0.0058,-0.0005,-0.0037,-0.0016,-0.0111,-0.0108,-0.0114,-0.0086,-0.0089,-0.009,-0.0076,-0.0027,0,0,0,0,0,0.0326,0.0322,0.0287,0.0277,0.026,0.022,0.0196,0.0177,0.0131,0.0113,0.0066,0.0017,-0.0033,-0.0064,-0.0118,-0.0181,-0.0197,-0.0202,-0.0203,-0.0204,-0.0205,-0.0236,-0.0239,-0.0201,-0.0201,-0.0201,0,0,0.0331,0.0315,0.0316,0.0279,0.0249,0.0211,0.0208,0.0167,0.0137,0.0102,0.0043,0.0003,-0.0052,-0.0114,-0.0144,-0.0141,-0.0225,-0.0207,-0.0207,-0.0208,-0.0238,-0.0242,-0.0245,-0.0203,-0.0203,-0.0202,0,0,0.0315,0.0321,0.0303,0.0272,0.0226,0.02,0.0191,0.0136,0.0116,0.0051,0.0029,-0.0017,-0.0107,-0.014,-0.0168,-0.0215,-0.0232,-0.0232,-0.0231,-0.026,-0.0263,-0.0266,-0.0292,-0.0297,-0.0231,-0.0231,-0.0231,0,0.0318,0.0298,0.0284,0.0248,0.0225,0.0199,0.0164,0.013,0.0059,0.0042,0.0035,-0.0074,-0.0118,-0.0177,-0.0189,-0.0217,-0.0235,-0.0216,-0.026,-0.0263,-0.0266,-0.0292,-0.0298,-0.0231,-0.0231,-0.0231,-0.0231,0,0.0277,0.0263,0.0245,0.0205,0.0176,0.0139,0.0101,0.0071,0.005,0.0018,-0.0043,-0.0102,-0.0156,-0.0179,-0.0202,-0.0246,-0.0253,-0.0256,-0.0248,-0.0268,-0.0295,-0.0301,-0.023,-0.023,-0.023,-0.023,0,0,0.0277,0.023,0.0224,0.0211,0.0155,0.013,0.0087,0.0044,0.0032,-0.0035,-0.0061,-0.0144,-0.0157,-0.019,-0.0221,-0.025,-0.0287,-0.0261,-0.0262,-0.0273,-0.0351,-0.0327,-0.0332,-0.0294,-0.0295,-0.0296,-0.0361,0,0.0248,0.0196,0.0176,0.0134,0.0108,0.0087,0.0059,0.0022,-0.001,-0.0045,-0.0093,-0.0137,-0.0167,-0.0184,-0.0221,-0.0268,-0.0303,-0.0269,-0.0342,-0.0344,-0.0309,-0.0339,-0.0299,-0.0366,-0.0367,-0.0368,-0.0369,0,0.0207,0.0185,0.0143,0.0125,0.0113,0.0088,0.0065,0.0034,-0.0011,-0.0031,-0.0079,-0.0117,-0.0176,-0.0189,-0.0284,-0.026,-0.0308,-0.0344,-0.0347,-0.0335,-0.0332,-0.0344,-0.0381,-0.038,-0.0379,-0.0378,-0.0377,0,0.0212,0.0165,0.0144,0.0129,0.0095,0.0088,0.0074,0.0037,0.0032,-0.002,-0.0024,-0.0108,-0.0134,-0.0212,-0.029,-0.0289,-0.0385,-0.039,-0.0419,-0.0418,-0.0426,-0.0422,-0.046,-0.046,-0.046,-0.046,-0.046,0,0.0186,0.0166,0.0151,0.0137,0.0134,0.0105,0.0103,0.0081,0.006,0.0065,-0.001,-0.002,-0.0139,-0.0206,-0.0286,-0.0369,-0.0385,-0.0426,-0.0435,-0.0418,-0.0413,-0.043,-0.0426,-0.0462,-0.0462,-0.0461,-0.0461,0,0.0168,0.0159,0.014,0.0127,0.0133,0.0128,0.0138,0.0141,0.0119,0.0125,0.0115,0.004,-0.0044,-0.0163,-0.0286,-0.0348,-0.0437,-0.0464,-0.0436,-0.0442,-0.0455,-0.0449,-0.0508,-0.0507,-0.0507,-0.0507,-0.0507,0,0.0135,0.0127,0.0142,0.0156,0.0148,0.0155,0.0174,0.0169,0.0183,0.0173,0.0184,0.0101,0.0043,-0.0108,-0.0247,-0.041,-0.0429,-0.0482,-0.0478,-0.0458,-0.0462,-0.0456,-0.0451,-0.0506,-0.0506,-0.0506,-0.0506,0,0.0073,0.0097,0.0096,0.0144,0.017,0.0209,0.0235,0.0261,0.0272,0.0256,0.0258,0.0168,0.0072,-0.0077,-0.0209,-0.0325,-0.0452,-0.048,-0.0482,-0.0478,-0.0457,-0.046,-0.0455,-0.0506,-0.0506,-0.0506,-0.0506,0,0.003,0.0037,0.0073,0.0125,0.0172,0.0248,0.0266,0.0304,0.0327,0.0329,0.0331,0.022,0.0146,-0.0032,-0.015,-0.0269,-0.0301,-0.0335,-0.0345,-0.0347,-0.0284,-0.0233,-0.0225,0,0,0,0,0,-0.0015,0.0022,0.0054,0.0134,0.0194,0.0245,0.0303,0.0325,0.0354,0.0375,0.036,0.0278,0.0109,0.0023,-0.0089,-0.0171,-0.0344,-0.0308,-0.0394,-0.0501,-0.0502,-0.0453,0,0,0,0,0,0,-0.0044,-0.0014,0.0043,0.014,0.0211,0.0292,0.0343,0.037,0.0384,0.0389,0.0302,0.026,0.0086,0.0183,-0.0085,-0.0126,-0.0193,-0.0394,-0.0396,-0.0501,-0.0502,-0.0502,-0.0452,0,0,0,0,0]}]]